When you browse on this site, cookies collect data to enhance your experience and personalize the content and advertising you see.
Visit our Privacy Policy to learn more. By continuing to use the site, you agree to this use of cookies and data.
  • In Österreich
  • Länderverzeichnis
  • Für 7 Tage
  • Wassertemperatur
  • Wetterkarte
  • News
  • Widgets
  • user-avatar
    Anmelden

    Stündliche Wetter Marakaibo

    Heute, 20 Januar, Montag

    Zeit Temperatur Niederschläge Wind Luftdruck Luftfeuchtigkeit
    00:00 +28°C° 0 mm 4 m/S 753 mmHg 74%
    01:00 +27°C° 0 mm 3 m/S 752 mmHg 74%
    02:00 +27°C° 0 mm 3 m/S 752 mmHg 75%
    03:00 +27°C° 0 mm 3 m/S 752 mmHg 75%
    04:00 +27°C° 0 mm 2 m/S 752 mmHg 76%
    05:00 +27°C° 0 mm 2 m/S 752 mmHg 76%
    06:00 +27°C° 0 mm 2 m/S 753 mmHg 75%
    07:00 +27°C° 0 mm 2 m/S 753 mmHg 74%
    08:00 +29°C° 0 mm 2 m/S 753 mmHg 68%
    09:00 +31°C° 0 mm 1 m/S 753 mmHg 61%
    10:00 +33°C° 0 mm 1 m/S 754 mmHg 54%
    11:00 +35°C° 0 mm 2 m/S 753 mmHg 52%
    12:00 +35°C° 0 mm 2 m/S 752 mmHg 50%
    13:00 +36°C° 0 mm 3 m/S 751 mmHg 48%
    14:00 +35°C° 0 mm 3 m/S 751 mmHg 50%
    15:00 +35°C° 0 mm 4 m/S 750 mmHg 52%
    16:00 +34°C° 0 mm 4 m/S 750 mmHg 54%
    17:00 +33°C° 0 mm 5 m/S 750 mmHg 61%
    18:00 +30°C° 0 mm 5 m/S 750 mmHg 68%
    19:00 +29°C° 0 mm 6 m/S 751 mmHg 75%
    20:00 +29°C° 0 mm 5 m/S 751 mmHg 76%
    21:00 +29°C° 0 mm 5 m/S 752 mmHg 77%
    22:00 +28°C° 0 mm 4 m/S 753 mmHg 78%
    23:00 +28°C° 0 mm 4 m/S 753 mmHg 79%

    Morgen, 21 Januar, Dienstag

    Zeit Temperatur Niederschläge Wind Luftdruck Luftfeuchtigkeit
    00:00 +28°C° 0 mm 4 m/S 752 mmHg 79%
    01:00 +28°C° 0 mm 3 m/S 752 mmHg 80%
    02:00 +28°C° 0 mm 3 m/S 752 mmHg 81%
    03:00 +27°C° 0 mm 3 m/S 752 mmHg 82%
    04:00 +27°C° 0 mm 2 m/S 752 mmHg 84%
    05:00 +27°C° 0 mm 2 m/S 752 mmHg 83%
    06:00 +27°C° 0 mm 2 m/S 752 mmHg 83%
    07:00 +27°C° 0 mm 2 m/S 753 mmHg 82%
    08:00 +29°C° 0.1 mm 2 m/S 753 mmHg 74%
    09:00 +31°C° 0.1 mm 2 m/S 753 mmHg 67%
    10:00 +34°C° 0.1 mm 2 m/S 753 mmHg 59%
    11:00 +34°C° 0 mm 2 m/S 753 mmHg 56%
    12:00 +35°C° 0 mm 2 m/S 752 mmHg 53%
    13:00 +36°C° 0 mm 2 m/S 751 mmHg 50%
    14:00 +35°C° 0 mm 3 m/S 751 mmHg 52%
    15:00 +35°C° 0 mm 3 m/S 750 mmHg 54%
    16:00 +34°C° 0 mm 3 m/S 750 mmHg 56%
    17:00 +33°C° 0.1 mm 3 m/S 750 mmHg 63%
    18:00 +30°C° 0.1 mm 3 m/S 751 mmHg 69%
    19:00 +29°C° 0.1 mm 4 m/S 751 mmHg 76%
    20:00 +28°C° 0.1 mm 4 m/S 752 mmHg 78%
    21:00 +28°C° 0.1 mm 4 m/S 752 mmHg 80%
    22:00 +28°C° 0.1 mm 4 m/S 753 mmHg 81%
    23:00 +28°C° 0.1 mm 4 m/S 753 mmHg 82%

    übermorgen, 22 Januar, Mittwoch

    Zeit Temperatur Niederschläge Wind Luftdruck Luftfeuchtigkeit
    00:00 +27°C° 0.1 mm 4 m/S 752 mmHg 83%
    01:00 +27°C° 0.1 mm 4 m/S 752 mmHg 84%
    02:00 +27°C° 0.1 mm 4 m/S 752 mmHg 85%
    03:00 +27°C° 0.1 mm 4 m/S 752 mmHg 86%
    04:00 +26°C° 0.1 mm 3 m/S 751 mmHg 87%
    05:00 +27°C° 0.2 mm 4 m/S 752 mmHg 86%
    06:00 +27°C° 0.2 mm 4 m/S 752 mmHg 86%
    07:00 +27°C° 0.2 mm 4 m/S 753 mmHg 85%
    08:00 +28°C° 0.2 mm 4 m/S 753 mmHg 78%
    09:00 +30°C° 0.2 mm 4 m/S 753 mmHg 71%
    10:00 +32°C° 0.2 mm 4 m/S 754 mmHg 64%
    11:00 +33°C° 0.2 mm 4 m/S 753 mmHg 60%
    12:00 +34°C° 0.2 mm 3 m/S 752 mmHg 55%
    13:00 +35°C° 0.2 mm 3 m/S 751 mmHg 51%
    14:00 +35°C° 0.3 mm 3 m/S 751 mmHg 53%
    15:00 +34°C° 0.3 mm 3 m/S 751 mmHg 55%
    16:00 +34°C° 0.3 mm 2 m/S 750 mmHg 57%
    17:00 +31°C° 0.2 mm 2 m/S 751 mmHg 62%
    18:00 +30°C° 0.2 mm 3 m/S 751 mmHg 67%
    19:00 +29°C° 0.2 mm 3 m/S 752 mmHg 73%
    20:00 +29°C° 0.2 mm 3 m/S 753 mmHg 75%
    21:00 +28°C° 0.2 mm 4 m/S 753 mmHg 77%
    22:00 +28°C° 0.2 mm 5 m/S 754 mmHg 80%
    23:00 +27°C° 0.1 mm 4 m/S 753 mmHg 81%

    23 Januar, Donnerstag

    Zeit Temperatur Niederschläge Wind Luftdruck Luftfeuchtigkeit
    00:00 +27°C° 0.1 mm 4 m/S 753 mmHg 83%
    01:00 +27°C° 0.1 mm 4 m/S 753 mmHg 84%
    02:00 +27°C° 0.1 mm 3 m/S 752 mmHg 85%
    03:00 +26°C° 0.1 mm 3 m/S 752 mmHg 86%
    04:00 +26°C° 0.1 mm 3 m/S 752 mmHg 87%
    05:00 +26°C° 0.2 mm 3 m/S 752 mmHg 86%
    06:00 +26°C° 0.2 mm 3 m/S 753 mmHg 85%
    07:00 +27°C° 0.2 mm 3 m/S 753 mmHg 84%
    08:00 +28°C° 0.4 mm 3 m/S 753 mmHg 77%
    09:00 +30°C° 0.4 mm 3 m/S 754 mmHg 69%
    10:00 +31°C° 0.4 mm 3 m/S 754 mmHg 62%
    11:00 +33°C° 0.2 mm 3 m/S 753 mmHg 60%
    12:00 +33°C° 0.2 mm 3 m/S 753 mmHg 58%
    13:00 +34°C° 0.2 mm 3 m/S 752 mmHg 55%
    14:00 +33°C° 0 mm 4 m/S 751 mmHg 56%
    15:00 +33°C° 0 mm 4 m/S 751 mmHg 56%
    16:00 +33°C° 0 mm 5 m/S 750 mmHg 56%
    17:00 +32°C° 0 mm 4 m/S 751 mmHg 60%
    18:00 +29°C° 0 mm 4 m/S 752 mmHg 64%
    19:00 +28°C° 0 mm 4 m/S 752 mmHg 68%
    20:00 +28°C° 0 mm 4 m/S 753 mmHg 71%
    21:00 +28°C° 0 mm 4 m/S 753 mmHg 75%
    22:00 +27°C° 0 mm 4 m/S 754 mmHg 79%
    23:00 +27°C° 0 mm 4 m/S 753 mmHg 80%

    24 Januar, Freitag

    Zeit Temperatur Niederschläge Wind Luftdruck Luftfeuchtigkeit
    00:00 +27°C° 0 mm 3 m/S 753 mmHg 81%
    01:00 +27°C° 0 mm 3 m/S 753 mmHg 82%
    02:00 +26°C° 0 mm 3 m/S 753 mmHg 83%
    03:00 +26°C° 0 mm 3 m/S 753 mmHg 83%
    04:00 +26°C° 0 mm 3 m/S 752 mmHg 84%
    05:00 +26°C° 0 mm 3 m/S 753 mmHg 84%
    06:00 +26°C° 0 mm 3 m/S 754 mmHg 83%
    07:00 +26°C° 0 mm 3 m/S 754 mmHg 83%
    08:00 +28°C° 0 mm 3 m/S 754 mmHg 75%
    09:00 +30°C° 0 mm 3 m/S 755 mmHg 66%
    10:00 +31°C° 0 mm 3 m/S 755 mmHg 58%
    11:00 +33°C° 0 mm 3 m/S 754 mmHg 55%
    12:00 +34°C° 0 mm 4 m/S 754 mmHg 51%
    13:00 +34°C° 0 mm 4 m/S 753 mmHg 48%
    14:00 +34°C° 0 mm 4 m/S 753 mmHg 50%
    15:00 +33°C° 0 mm 5 m/S 752 mmHg 52%
    16:00 +33°C° 0 mm 5 m/S 752 mmHg 54%
    17:00 +30°C° 0 mm 5 m/S 752 mmHg 61%
    18:00 +29°C° 0 mm 5 m/S 753 mmHg 68%
    19:00 +28°C° 0 mm 5 m/S 753 mmHg 74%
    20:00 +28°C° 0 mm 5 m/S 754 mmHg 75%
    21:00 +27°C° 0 mm 4 m/S 755 mmHg 75%
    22:00 +27°C° 0 mm 4 m/S 755 mmHg 75%
    23:00 +27°C° 0 mm 4 m/S 755 mmHg 77%

    25 Januar, Samstag

    Zeit Temperatur Niederschläge Wind Luftdruck Luftfeuchtigkeit
    00:00 +27°C° 0 mm 4 m/S 755 mmHg 80%
    01:00 +26°C° 0 mm 4 m/S 754 mmHg 82%
    02:00 +26°C° 0 mm 4 m/S 754 mmHg 83%
    03:00 +26°C° 0 mm 4 m/S 754 mmHg 83%
    04:00 +26°C° 0 mm 4 m/S 754 mmHg 84%
    05:00 +26°C° 0 mm 3 m/S 754 mmHg 82%
    06:00 +27°C° 0 mm 3 m/S 755 mmHg 81%
    07:00 +27°C° 0 mm 3 m/S 755 mmHg 79%
    08:00 +28°C° 0 mm 3 m/S 755 mmHg 71%
    09:00 +30°C° 0 mm 3 m/S 756 mmHg 63%
    10:00 +31°C° 0 mm 2 m/S 756 mmHg 55%
    11:00 +32°C° 0 mm 2 m/S 755 mmHg 53%
    12:00 +34°C° 0 mm 2 m/S 754 mmHg 50%
    13:00 +34°C° 0 mm 2 m/S 754 mmHg 48%
    14:00 +34°C° 0 mm 3 m/S 753 mmHg 48%
    15:00 +34°C° 0 mm 3 m/S 753 mmHg 49%
    16:00 +34°C° 0 mm 3 m/S 752 mmHg 49%
    17:00 +32°C° 0 mm 4 m/S 753 mmHg 58%
    18:00 +30°C° 0 mm 4 m/S 753 mmHg 66%
    19:00 +28°C° 0 mm 5 m/S 754 mmHg 75%
    20:00 +28°C° 0 mm 5 m/S 754 mmHg 76%
    21:00 +28°C° 0 mm 4 m/S 755 mmHg 76%
    22:00 +28°C° 0 mm 4 m/S 755 mmHg 77%
    23:00 +27°C° 0.1 mm 4 m/S 755 mmHg 79%
    Mehr zeigen